Location: Doazon
(43.4500°N, 0.5500°W)
Time: 00:45:38
(UTC+00:00)

Cosmos 2263 Rocket - Pass Details

Date: 05 December 2025
Orbit: 821 x 849 km, 71.0° (Epoch: 19 January)

Event Time Altitude Azimuth Distance (km) Brightness Sun altitude
Rises 18:20:07 0° 343° (NNW) 3,402 5.4 -20.0°
Reaches altitude 10° 18:22:59 10° 356° (N) 2,468 4.5 -20.5°
Enters shadow 18:25:49 22° 22° (NNE) 1,771 3.6 -21.0°
